{"data":{"norad_id":57253,"epoch":"2026-05-25T03:23:28.542048Z","epoch_age_seconds":69659,"freshness":"FRESH","line1":"1 57253U 23094AM  26145.14130257  .00000118  00000+0  13824-4 0  9992","line2":"2 57253  43.0015 308.0069 0001325 273.9660  86.1040 15.27579840158930","mean_motion":15.2757984,"eccentricity":0.0001325,"inclination_deg":43.0015,"raan_deg":308.0069,"arg_perigee_deg":273.966,"mean_anomaly_deg":86.104,"bstar":1.3824e-5,"rev_number":15893,"period_min":94.26675858723,"perigee_km":482.14046791605,"apogee_km":483.95868235846,"semimajor_km":6861.1865751373,"source":"CELESTRAK","updated_at":"2026-05-25T13:38:18.278650Z"}}